KA8UPW-1 Weather Reports


Display with metric or nautical units.
time (UTC)temp
F
wind
direction
speed
MPH
gust
MPH
rain 1hr
in
rain 24hr
in
rain mn
in
humidity
%
barometer
mb
20260505090004 62 0 0.0 0.0 0.00 0.01 0.01 72 1003.5
20260505085404 62 0 0.0 0.0 0.00 0.01 0.01 71 1003.6
20260505084503 63 0 0.0 0.0 0.00 0.01 0.01 71 1003.2
20260505083604 63 0 0.0 0.0 0.00 0.01 0.01 70 1003.1
20260505082704 63 0 0.0 0.0 0.00 0.01 0.01 70 1002.9
20260505081803 63 0 0.0 0.0 0.00 0.01 0.01 70 1002.7
20260505080904 64 0 0.0 0.0 0.00 0.01 0.01 69 1002.5
20260505080004 64 0 0.0 0.0 0.01 0.01 0.01 68 1002.4
20260505075403 64 0 0.0 0.0 0.01 0.01 0.01 68 1002.4
20260505074503 65 0 0.0 0.0 0.01 0.01 0.01 67 1002.4
20260505073603 65 0 0.0 0.0 0.01 0.01 0.01 67 1002.3
20260505072918 65 0 0.0 0.0 0.01 0.01 0.01 67 1002.2
20260505071804 64 0 0.0 0.0 0.01 0.01 0.01 71 1001.9
20260505070903 64 0 0.0 0.0 0.01 0.01 0.01 70 1002.0
20260505070005 66 0 0.0 0.0 0.00 0.00 0.00 63 1002.1
20260505065621 67 0 0.0 0.0 0.00 0.00 0.00 62 1002.2
20260505064503 67 0 0.0 0.0 0.00 0.00 0.00 62 1001.9
20260505063821 67 0 0.0 0.0 0.00 0.00 0.00 61 1001.8
20260505062918 67 0 0.0 0.0 0.00 0.00 0.00 61 1001.9
20260505061803 67 0 0.0 0.0 0.00 0.00 0.00 61 1002.0
20260505061118 67 0 0.0 0.0 0.00 0.00 0.00 62 1002.2
20260505060004 67 0 0.0 0.0 0.00 0.00 0.00 62 1002.0
20260505055403 67 0 0.0 0.0 0.00 0.00 0.00 62 1002.2
20260505054719 67 0 0.0 0.0 0.00 0.00 0.00 62 1002.2
20260505053604 67 0 0.0 0.0 0.00 0.00 0.00 62 1002.3
20260505052704 67 0 0.0 0.0 0.00 0.00 0.00 63 1002.4
20260505051804 66 0 0.0 0.0 0.00 0.00 0.00 64 1002.4
20260505050903 66 0 0.0 0.0 0.00 0.00 0.00 65 1002.5
20260505040904 66 0 0.0 0.0 0.00 0.00 0.00 65 1002.8
20260505040222 66 0 0.0 0.0 0.00 0.00 0.00 65 1002.8
20260505035618 66 0 0.0 0.0 0.00 0.00 0.00 65 1002.9
20260505034505 66 0 0.0 0.0 0.00 0.00 0.00 66 1002.8
20260505033604 66 0 0.0 0.0 0.00 0.00 0.00 66 1002.8
20260505032704 65 0 0.0 0.0 0.00 0.00 0.00 66 1002.9
20260505031803 65 0 0.0 0.0 0.00 0.00 0.00 66 1002.9
20260505030903 66 0 0.0 0.0 0.00 0.00 0.00 66 1002.7
20260505030004 66 0 0.0 0.0 0.00 0.00 0.00 66 1002.8
20260505025404 66 0 0.0 0.0 0.00 0.00 0.00 66 1002.8
20260505024721 66 0 0.0 0.0 0.00 0.00 0.00 66 1002.9
20260505023603 66 0 0.0 0.0 0.00 0.00 0.00 66 1003.0
20260505022921 66 0 0.0 0.0 0.00 0.00 0.00 66 1002.9
20260505021803 66 0 0.0 0.0 0.00 0.00 0.00 66 1003.0
20260505020904 66 0 0.0 0.0 0.00 0.00 0.00 66 1002.9
20260505020004 66 0 0.0 0.0 0.00 0.00 0.00 66 1003.0
20260505015404 66 0 0.0 0.0 0.00 0.00 0.00 65 1003.0
20260505014504 65 0 0.0 0.0 0.00 0.00 0.00 66 1002.9
20260505013603 66 0 0.0 0.0 0.00 0.00 0.00 65 1002.8
20260505012708 66 0 0.0 0.0 0.00 0.00 0.00 65 1002.7
20260505011804 66 0 0.0 0.0 0.00 0.00 0.00 64 1002.8
20260505010904 66 0 0.0 0.0 0.00 0.00 0.00 63 1002.8
20260505010004 66 0 0.0 0.0 0.00 0.00 0.00 63 1002.8
20260505005404 67 0 0.0 0.0 0.00 0.00 0.00 62 1002.8
20260505004503 67 0 0.0 0.0 0.00 0.00 0.00 61 1002.8
20260505003603 67 0 0.0 0.0 0.00 0.00 0.00 61 1002.7
20260505002922 67 0 0.0 0.0 0.00 0.00 0.00 60 1002.8
20260505001803 68 0 0.0 0.0 0.00 0.00 0.00 60 1002.7
20260505000904 68 0 0.0 0.0 0.00 0.00 0.00 60 1002.6
20260505000004 68 0 0.0 0.0 0.00 0.00 0.00 58 1002.5
20260504235620 69 0 0.0 0.0 0.00 0.00 0.00 58 1002.6
20260504234504 69 0 0.0 0.0 0.00 0.00 0.00 55 1002.4
20260504233603 70 0 0.0 0.0 0.00 0.00 0.00 54 1002.3
20260504232703 70 0 0.0 0.0 0.00 0.00 0.00 53 1002.0
20260504231803 71 0 0.0 0.0 0.00 0.00 0.00 52 1002.1
20260504231117 71 0 0.0 0.0 0.00 0.00 0.00 51 1002.0
20260504230220 72 0 0.0 0.0 0.00 0.00 0.00 50 1002.0
20260504225404 72 0 0.0 0.0 0.00 0.00 0.00 50 1002.2
20260504224504 73 0 0.0 0.0 0.00 0.00 0.00 49 1002.2
20260504223821 73 0 0.0 0.0 0.00 0.00 0.00 49 1002.3
20260504222704 73 0 0.0 0.0 0.00 0.00 0.00 50 1002.3
20260504221803 73 0 0.0 0.0 0.00 0.00 0.00 51 1002.4
20260504220904 73 0 0.0 0.0 0.00 0.00 0.00 52 1002.4
20260504220004 73 0 0.0 0.0 0.00 0.00 0.00 51 1002.4
20260504215622 73 0 0.0 0.0 0.00 0.00 0.00 52 1002.4
20260504214503 72 0 0.0 0.0 0.00 0.00 0.00 52 1002.4
20260504213604 73 0 0.0 0.0 0.00 0.00 0.00 53 1002.6
20260504212703 72 0 0.0 0.0 0.00 0.00 0.00 52 1002.7
20260504211803 72 0 0.0 0.0 0.00 0.00 0.00 53 1002.6
20260504210903 72 0 0.0 0.0 0.00 0.00 0.00 53 1002.8
20260504210004 72 0 0.0 0.0 0.00 0.00 0.00 54 1002.7
20260504205404 72 0 0.0 0.0 0.00 0.00 0.00 56 1002.6
20260504204503 72 0 0.0 0.0 0.00 0.00 0.00 55 1002.7
20260504203603 73 0 0.0 0.0 0.00 0.00 0.00 54 1002.6
20260504202920 72 0 0.0 0.0 0.00 0.00 0.00 55 1002.7
20260504201804 72 0 0.0 0.0 0.00 0.00 0.00 54 1003.0
20260504200903 72 0 0.0 0.0 0.00 0.00 0.00 56 1002.9
20260504200003 71 0 0.0 0.0 0.00 0.00 0.00 56 1003.1
20260504195403 72 0 0.0 0.0 0.00 0.00 0.00 56 1003.1
20260504194503 72 0 0.0 0.0 0.00 0.00 0.00 55 1003.3
20260504193603 72 0 0.0 0.0 0.00 0.00 0.00 55 1003.4
20260504192704 71 0 0.0 0.0 0.00 0.00 0.00 55 1003.7
20260504191803 71 0 0.0 0.0 0.00 0.00 0.00 55 1003.7
20260504190903 72 0 0.0 0.0 0.00 0.00 0.00 56 1003.7
20260504190005 72 0 0.0 0.0 0.00 0.00 0.00 55 1003.7
20260504185403 71 0 0.0 0.0 0.00 0.00 0.00 55 1003.7
20260504184721 71 0 0.0 0.0 0.00 0.00 0.00 57 1003.9
20260504183603 70 0 0.0 0.0 0.00 0.00 0.00 58 1004.1
20260504182921 70 0 0.0 0.0 0.00 0.00 0.00 58 1004.2
20260504181803 70 0 0.0 0.0 0.00 0.00 0.00 58 1004.4
20260504180903 69 0 0.0 0.0 0.00 0.00 0.00 58 1004.4
20260504180005 69 0 0.0 0.0 0.00 0.00 0.00 60 1004.4
20260504175403 68 0 0.0 0.0 0.00 0.00 0.00 59 1004.5
20260504174505 69 0 0.0 0.0 0.00 0.00 0.00 58 1004.5
20260504173603 69 0 0.0 0.0 0.00 0.00 0.00 61 1004.7
20260504172921 68 0 0.0 0.0 0.00 0.00 0.00 60 1004.8
20260504171804 67 0 0.0 0.0 0.00 0.00 0.00 60 1005.1
20260504170904 67 0 0.0 0.0 0.00 0.00 0.00 61 1005.0
20260504150903 61 0 0.0 0.0 0.00 0.00 0.00 63 1005.9
20260504140903 59 0 0.0 0.0 0.00 0.00 0.00 65 1006.1
20260504130221 56 0 0.0 0.0 0.00 0.00 0.00 66 1006.8
20260504120222 53 0 0.0 0.0 0.00 0.00 0.00 67 1006.8